Location: Marsån
(66.4167°N, 22.2833°E)
Time: 09:55:46
(UTC+00:00)

CZ-4 R/B - Pass Details

Date: 24 February 2024
Orbit: 516 x 575 km, 97.7° (Epoch: 15 April)

Event Time Altitude Azimuth Distance (km) Brightness Sun altitude
Rises 16:23:46 0° 139° (SE) 2,740 4.6 -6.7°
Reaches altitude 10° 16:25:54 10° 134° (SE) 1,858 3.7 -6.9°
Maximum altitude 16:29:48 49° 59° (ENE) 740 1.6 -7.2°
Drops below altitude 10° 16:33:47 10° 345° (NNW) 1,898 4.2 -7.6°
Sets 16:35:59 0° 340° (NNW) 2,807 5.1 -7.9°
